| time (UTC) | temp F | wind direction | speed knots | gust knots | rain 1hr in | rain 24hr in | rain mn in | humidity % | barometer mb |
| 20260503051117 | 35 | 0.0 | 0.9 | 0.00 | 0.00 | 0.00 | 86 | 1014.2 | |
| 20260503050117 | 35 | 225 | 1.7 | 2.6 | 0.00 | 0.00 | 0.00 | 86 | 1014.3 |
| 20260503045137 | 36 | 225 | 0.9 | 1.7 | 0.00 | 0.00 | 0.00 | 84 | 1014.3 |
| 20260503044116 | 36 | 0.0 | 0.9 | 0.00 | 0.00 | 0.00 | 83 | 1014.3 | |
| 20260503043116 | 37 | 225 | 0.9 | 0.9 | 0.00 | 0.00 | 0.00 | 82 | 1014.4 |
| 20260503042116 | 38 | 225 | 0.9 | 2.6 | 0.00 | 0.00 | 0.00 | 81 | 1014.5 |
| 20260503041116 | 38 | 225 | 1.7 | 2.6 | 0.00 | 0.00 | 0.00 | 80 | 1014.5 |
| 20260503040118 | 39 | 225 | 0.9 | 1.7 | 0.00 | 0.00 | 0.00 | 80 | 1014.5 |
| 20260503035116 | 39 | 0.0 | 0.9 | 0.00 | 0.00 | 0.00 | 81 | 1014.5 | |
| 20260503034116 | 39 | 225 | 1.7 | 2.6 | 0.00 | 0.00 | 0.00 | 81 | 1014.6 |
| 20260503033117 | 39 | 0.0 | 0.0 | 0.00 | 0.00 | 0.00 | 81 | 1014.6 | |
| 20260503032116 | 39 | 225 | 1.7 | 2.6 | 0.00 | 0.00 | 0.00 | 81 | 1014.7 |
| 20260503031116 | 39 | 248 | 0.9 | 1.7 | 0.00 | 0.00 | 0.00 | 81 | 1014.7 |
| 20260503030116 | 39 | 248 | 1.7 | 2.6 | 0.00 | 0.00 | 0.00 | 81 | 1014.7 |
| 20260503025116 | 40 | 0.0 | 0.9 | 0.00 | 0.00 | 0.00 | 80 | 1014.8 | |
| 20260503024116 | 40 | 0.0 | 0.0 | 0.00 | 0.00 | 0.00 | 78 | 1014.8 | |
| 20260503023116 | 41 | 0.0 | 0.9 | 0.00 | 0.00 | 0.00 | 75 | 1014.9 | |
| 20260503022116 | 41 | 248 | 0.9 | 2.6 | 0.00 | 0.00 | 0.00 | 74 | 1015.0 |
| 20260503021138 | 41 | 248 | 0.9 | 1.7 | 0.00 | 0.00 | 0.00 | 72 | 1015.1 |
| 20260503020116 | 41 | 248 | 0.9 | 0.9 | 0.00 | 0.00 | 0.00 | 72 | 1015.0 |
| 20260503015116 | 42 | 248 | 0.9 | 1.7 | 0.00 | 0.00 | 0.00 | 72 | 1015.0 |
| 20260503014116 | 42 | 248 | 0.9 | 1.7 | 0.00 | 0.00 | 0.00 | 70 | 1015.0 |
| 20260503013116 | 42 | 248 | 0.9 | 2.6 | 0.00 | 0.00 | 0.00 | 69 | 1015.0 |
| 20260503012116 | 42 | 248 | 1.7 | 2.6 | 0.00 | 0.00 | 0.00 | 69 | 1015.0 |
| 20260503011116 | 42 | 293 | 1.7 | 3.5 | 0.00 | 0.00 | 0.00 | 66 | 1014.9 |
| 20260503010116 | 43 | 293 | 1.7 | 1.7 | 0.00 | 0.00 | 0.00 | 68 | 1014.9 |
| 20260503005136 | 43 | 248 | 1.7 | 2.6 | 0.00 | 0.00 | 0.00 | 67 | 1014.8 |
| 20260503004116 | 43 | 248 | 3.5 | 7.0 | 0.00 | 0.00 | 0.00 | 67 | 1014.8 |
| 20260503003116 | 43 | 293 | 1.7 | 2.6 | 0.00 | 0.00 | 0.00 | 66 | 1014.6 |
| 20260503002118 | 43 | 270 | 0.9 | 2.6 | 0.00 | 0.00 | 0.00 | 66 | 1014.6 |
| 20260503001116 | 43 | 270 | 1.7 | 2.6 | 0.00 | 0.00 | 0.00 | 66 | 1014.5 |
| 20260503000116 | 43 | 225 | 0.9 | 2.6 | 0.00 | 0.00 | 0.00 | 66 | 1014.5 |
| 20260502235116 | 43 | 248 | 2.6 | 5.2 | 0.00 | 0.00 | 0.00 | 65 | 1014.4 |
| 20260502234116 | 43 | 315 | 2.6 | 4.3 | 0.00 | 0.00 | 0.00 | 66 | 1014.4 |
| 20260502233116 | 44 | 270 | 1.7 | 2.6 | 0.00 | 0.00 | 0.00 | 67 | 1014.3 |
| 20260502232116 | 44 | 293 | 2.6 | 6.1 | 0.00 | 0.00 | 0.00 | 68 | 1014.4 |
| 20260502231118 | 44 | 293 | 1.7 | 2.6 | 0.00 | 0.00 | 0.00 | 71 | 1014.3 |
| 20260502230116 | 44 | 270 | 2.6 | 5.2 | 0.00 | 0.00 | 0.00 | 70 | 1014.2 |
| 20260502225116 | 44 | 248 | 1.7 | 2.6 | 0.00 | 0.00 | 0.00 | 70 | 1014.1 |
| 20260502224116 | 45 | 270 | 2.6 | 5.2 | 0.00 | 0.00 | 0.00 | 69 | 1014.1 |
| 20260502223136 | 45 | 203 | 1.7 | 2.6 | 0.00 | 0.00 | 0.00 | 68 | 1014.1 |
| 20260502222116 | 46 | 270 | 0.9 | 1.7 | 0.00 | 0.00 | 0.00 | 61 | 1014.1 |
| 20260502221116 | 47 | 293 | 1.7 | 2.6 | 0.00 | 0.00 | 0.00 | 61 | 1014.1 |
| 20260502220136 | 47 | 248 | 0.9 | 2.6 | 0.00 | 0.00 | 0.00 | 63 | 1014.2 |
| 20260502215116 | 47 | 293 | 0.9 | 2.6 | 0.00 | 0.00 | 0.00 | 65 | 1014.2 |
| 20260502214116 | 48 | 338 | 1.7 | 4.3 | 0.00 | 0.00 | 0.00 | 66 | 1014.1 |
| 20260502213159 | 48 | 338 | 0.9 | 2.6 | 0.00 | 0.00 | 0.00 | 67 | 1014.1 |
| 20260502212116 | 48 | 315 | 2.6 | 6.1 | 0.00 | 0.00 | 0.00 | 68 | 1014.1 |
| 20260502211116 | 48 | 338 | 1.7 | 2.6 | 0.00 | 0.00 | 0.00 | 61 | 1014.0 |
| 20260502210116 | 49 | 315 | 3.5 | 5.2 | 0.00 | 0.00 | 0.00 | 66 | 1014.0 |
| 20260502205136 | 49 | 293 | 3.5 | 6.1 | 0.00 | 0.00 | 0.00 | 68 | 1014.1 |
| 20260502204116 | 48 | 293 | 1.7 | 5.2 | 0.00 | 0.00 | 0.00 | 67 | 1014.0 |
| 20260502203258 | 47 | 293 | 3.5 | 7.0 | 0.00 | 0.00 | 0.00 | 64 | 1014.0 |
| 20260502202137 | 46 | 248 | 1.7 | 2.6 | 0.00 | 0.00 | 0.00 | 66 | 1014.0 |
| 20260502201116 | 46 | 315 | 2.6 | 5.2 | 0.00 | 0.00 | 0.00 | 67 | 1014.1 |
| 20260502200136 | 47 | 0 | 2.6 | 4.3 | 0.00 | 0.00 | 0.00 | 65 | 1014.2 |
| 20260502200016 | 47 | 338 | 1.7 | 3.5 | 0.00 | 0.00 | 0.00 | 67 | 1014.2 |
| 20260502195016 | 47 | 315 | 2.6 | 4.3 | 0.00 | 0.00 | 0.00 | 66 | 1014.3 |
| 20260502194016 | 46 | 315 | 0.9 | 2.6 | 0.00 | 0.00 | 0.00 | 67 | 1014.4 |
| 20260502193016 | 46 | 0 | 0.9 | 1.7 | 0.00 | 0.00 | 0.00 | 67 | 1014.4 |
| 20260502192016 | 46 | 338 | 3.5 | 7.0 | 0.00 | 0.00 | 0.00 | 64 | 1014.5 |
| 20260502191016 | 47 | 248 | 4.3 | 7.0 | 0.00 | 0.00 | 0.00 | 64 | 1014.6 |
| 20260502190036 | 48 | 248 | 4.3 | 7.0 | 0.00 | 0.01 | 0.00 | 64 | 1014.6 |
| 20260502185016 | 50 | 315 | 2.6 | 5.2 | 0.00 | 0.01 | 0.00 | 66 | 1014.7 |
| 20260502184015 | 47 | 270 | 1.7 | 1.7 | 0.00 | 0.01 | 0.00 | 67 | 1014.6 |
| 20260502182017 | 48 | 293 | 4.3 | 9.6 | 0.00 | 0.01 | 0.00 | 67 | 1014.8 |
| 20260502181016 | 49 | 270 | 2.6 | 6.1 | 0.00 | 0.01 | 0.00 | 69 | 1014.8 |
| 20260502164015 | 48 | 248 | 5.2 | 8.7 | 0.00 | 0.06 | 0.00 | 65 | 1014.8 |
| 20260502163015 | 49 | 293 | 2.6 | 4.3 | 0.00 | 0.06 | 0.00 | 68 | 1014.9 |
| 20260502162016 | 47 | 338 | 2.6 | 6.1 | 0.00 | 0.06 | 0.00 | 74 | 1014.9 |
| 20260502161015 | 47 | 315 | 4.3 | 8.7 | 0.00 | 0.06 | 0.00 | 74 | 1015.0 |
| 20260502152015 | 47 | 293 | 2.6 | 5.2 | 0.00 | 0.06 | 0.00 | 67 | 1014.8 |
| 20260502151036 | 46 | 293 | 2.6 | 5.2 | 0.00 | 0.06 | 0.00 | 68 | 1014.8 |
| 20260502123015 | 42 | 270 | 3.5 | 6.1 | 0.00 | 0.06 | 0.00 | 79 | 1015.2 |
| 20260502122015 | 41 | 270 | 2.6 | 5.2 | 0.00 | 0.06 | 0.00 | 79 | 1015.2 |
| 20260502121035 | 40 | 248 | 4.3 | 5.2 | 0.00 | 0.06 | 0.00 | 79 | 1015.1 |
| 20260502115015 | 39 | 270 | 2.6 | 5.2 | 0.00 | 0.06 | 0.00 | 85 | 1015.3 |
| 20260502114015 | 38 | 270 | 1.7 | 3.5 | 0.00 | 0.06 | 0.00 | 84 | 1015.3 |
| 20260502113035 | 37 | 248 | 2.6 | 5.2 | 0.00 | 0.06 | 0.00 | 87 | 1015.3 |
| 20260502112015 | 36 | 293 | 1.7 | 2.6 | 0.00 | 0.06 | 0.00 | 89 | 1015.2 |
| 20260502111035 | 35 | 248 | 1.7 | 2.6 | 0.00 | 0.06 | 0.00 | 90 | 1015.1 |
| 20260502110015 | 34 | 225 | 1.7 | 2.6 | 0.00 | 0.06 | 0.00 | 91 | 1015.1 |
| 20260502105035 | 33 | 248 | 1.7 | 2.6 | 0.00 | 0.06 | 0.00 | 91 | 1015.0 |
| 20260502104015 | 33 | 248 | 1.7 | 2.6 | 0.00 | 0.06 | 0.00 | 92 | 1014.9 |
| 20260502103015 | 33 | 248 | 1.7 | 2.6 | 0.00 | 0.06 | 0.00 | 91 | 1014.9 |
| 20260502102015 | 33 | 248 | 1.7 | 1.7 | 0.00 | 0.06 | 0.00 | 91 | 1014.7 |
| 20260502101015 | 33 | 270 | 1.7 | 2.6 | 0.00 | 0.06 | 0.00 | 91 | 1014.7 |
| 20260502091017 | 33 | 248 | 0.9 | 2.6 | 0.00 | 0.06 | 0.00 | 91 | 1014.3 |
| 20260502071019 | 37 | 293 | 2.6 | 5.2 | 0.00 | 0.06 | 0.00 | 87 | 1014.0 |
| 20260502070017 | 37 | 293 | 1.7 | 2.6 | 0.00 | 0.06 | 0.00 | 88 | 1014.0 |
| 20260502065016 | 37 | 248 | 1.7 | 3.5 | 0.00 | 0.06 | 0.00 | 87 | 1013.9 |
| 20260502064018 | 37 | 270 | 0.9 | 1.7 | 0.00 | 0.06 | 0.00 | 87 | 1014.0 |
| 20260502063017 | 38 | 248 | 0.9 | 2.6 | 0.00 | 0.06 | 0.00 | 85 | 1014.0 |
| 20260502062037 | 38 | 293 | 0.9 | 2.6 | 0.00 | 0.06 | 0.00 | 85 | 1013.9 |
| 20260502061036 | 38 | 270 | 1.7 | 3.5 | 0.00 | 0.06 | 0.00 | 86 | 1014.1 |
| 20260502060040 | 38 | 293 | 0.9 | 1.7 | 0.00 | 0.06 | 0.00 | 87 | 1014.1 |
| 20260502055016 | 38 | 293 | 1.7 | 4.3 | 0.00 | 0.06 | 0.00 | 87 | 1014.1 |
| 20260502054016 | 38 | 293 | 1.7 | 3.5 | 0.00 | 0.06 | 0.00 | 86 | 1014.1 |
| 20260502053017 | 39 | 338 | 1.7 | 3.5 | 0.00 | 0.06 | 0.00 | 85 | 1014.1 |
| 20260502052057 | 39 | 315 | 1.7 | 3.5 | 0.00 | 0.06 | 0.00 | 83 | 1013.9 |